Location: Vinland
(47.7731°N, 122.6974°W)
Time: 09:20:16
(UTC+00:00)

deb Explorer IX - All Passes

Search period start: 29 March 2023 00:00
Search period end: 08 April 2023 00:00
Orbit: 536 x 1029 km, 38.8° (Epoch: 28 March)

Date Brightness Start Highest point End Pass type
(mag) Time Alt. Az. Time Alt. Az. Time Alt. Az.
29 Mar - 13:18:44 10° S 13:20:36 12° SSE 13:22:25 10° SE visible
29 Mar - 15:02:20 10° SW 15:05:40 22° S 15:08:52 10° ESE daylight
29 Mar - 16:47:42 10° WSW 16:50:48 21° S 16:53:52 10° SE daylight
30 Mar - 12:43:48 10° S 12:45:27 12° SSE 12:47:02 10° SE visible
30 Mar - 14:27:06 10° SW 14:30:31 22° S 14:33:44 10° ESE daylight
30 Mar - 16:12:25 10° WSW 16:15:39 22° S 16:18:47 10° SE daylight
30 Mar - 17:59:38 10° SW 18:00:35 11° SSW 18:01:34 10° S daylight
31 Mar - 12:08:53 10° S 12:10:13 11° SSE 12:11:32 10° SE visible
31 Mar - 13:51:48 10° SW 13:55:18 22° S 13:58:33 10° ESE daylight
31 Mar - 15:37:04 10° WSW 15:40:27 23° S 15:43:40 10° SE daylight
31 Mar - 17:23:49 10° SW 17:25:25 12° SSW 17:26:59 10° S daylight
01 Apr - 11:34:02 10° SSE 11:34:56 10° SSE 11:35:50 10° SE visible
01 Apr - 13:16:26 10° SW 13:20:01 22° S 13:23:21 10° ESE visible
01 Apr - 15:01:39 10° WSW 15:05:11 24° S 15:08:32 10° SE daylight
01 Apr - 16:48:08 10° SW 16:50:10 13° SSW 16:52:11 10° S daylight
02 Apr - 12:40:59 10° SW 12:44:41 21° SSE 12:48:05 10° ESE visible
02 Apr - 14:26:09 10° WSW 14:29:53 25° S 14:33:20 10° SE daylight
02 Apr - 16:12:28 10° WSW 16:14:53 15° SSW 16:17:15 10° SSE daylight
03 Apr - 12:05:30 10° SW 12:09:17 21° SSE 12:12:46 10° ESE visible
03 Apr - 13:50:35 10° WSW 13:54:31 26° S 13:58:06 10° SE daylight
03 Apr - 15:36:46 10° WSW 15:39:33 17° SSW 15:42:14 10° SSE daylight
04 Apr - 11:29:56 10° SSW 11:33:50 21° SSE 11:37:23 10° ESE visible
04 Apr - 13:14:57 10° WSW 13:19:05 27° S 13:22:49 10° ESE daylight
04 Apr - 15:01:01 10° WSW 15:04:10 19° SSW 15:07:08 10° SSE daylight
05 Apr - 10:54:20 10° SSW 10:58:18 20° SSE 11:01:56 10° ESE visible
05 Apr - 12:39:13 10° WSW 12:43:35 28° S 12:47:29 10° ESE visible
05 Apr - 14:25:14 10° WSW 14:28:43 21° SSW 14:31:57 10° SSE daylight
06 Apr - 10:18:41 10° SSW 10:22:43 20° SSE 10:26:25 10° ESE visible
06 Apr - 12:03:27 10° SW 12:08:01 29° S 12:12:05 10° ESE visible
06 Apr - 13:49:23 10° WSW 13:53:13 23° SSW 13:56:42 10° SE daylight
07 Apr - 09:43:01 10° SSW 09:47:05 19° SSE 09:50:49 10° ESE visible
07 Apr - 11:27:37 10° SW 11:32:23 29° S 11:36:37 10° ESE visible
07 Apr - 13:13:30 10° WSW 13:17:38 25° SSW 13:21:22 10° SE daylight
07 Apr - 15:01:25 10° SW 15:02:27 11° SSW 15:03:30 10° SSW daylight
